Preview of NWS' New Version of Forecast
This preview is not operational and should not be used for support decisions.

Regional Weather Roundup (RWR)

Issued by National Weather Service (NWS)

                            
000
ASUS43 KMKX 230221
RWRWI 

WISCONSIN REGIONAL WEATHER ROUNDUP
NATIONAL WEATHER SERVICE MILWAUKEE/SULLIVAN WI
900 PM CDT MON JUL 22 2019

NOTE: "FAIR" INDICATES FEW OR NO CLOUDS BELOW 12,000 FEET WITH NO
SIGNIFICANT WEATHER AND/OR OBSTRUCTIONS TO VISIBILITY.

WIZ001-002-006>008-014>016-023>028-230300-
NORTHWEST WISCONSIN
  
CITY           SKY/WX    TMP DP  RH WIND       PRES   REMARKS
SUPERIOR ARPT  FAIR      70  55  59 CALM      30.13R                  
ASHLAND        FAIR      66  57  72 W5        30.11S                  
HAYWARD        FAIR      69  58  67 CALM      30.15S                  
SIREN          FAIR      66  57  72 W5        30.17R                  
CUMBERLAND     NOT AVBL                                               
RICE LAKE      FAIR      67  58  72 W5        30.17R                  
CHETEK         FAIR      69  56  64 W3        30.16R                  
LADYSMITH      FAIR      68  57  69 CALM      30.16S                  
EAU CLAIRE     FAIR      68  56  65 CALM      30.14S                  
MENOMONIE      FAIR      65  54  66 W6        30.17R                  
NEW RICHMOND   FAIR      65  56  73 W5        30.19R                  
OSCEOLA        FAIR      69  56  65 W3        30.20S                  
$$
 
WIZ003>005-009-010-017-018-230300-
NORTH CENTRAL WISCONSIN
  
CITY           SKY/WX    TMP DP  RH WIND       PRES   REMARKS
MANITOWISH WTR FAIR      58  58 100 CALM      30.13S                  
ARBOR VITAE    FAIR      63  56  78 CALM      30.13S                  
WOODRUFF       FAIR      63  56  78 CALM      30.13S                  
RHINELANDER    FAIR      60  54  80 CALM      30.14R                  
EAGLE RIVER    FAIR      60  51  73 CALM      30.12S                  
LAND O LAKES   FAIR      58  54  86 CALM      30.14S                  
PHILLIPS       FAIR      61  56  83 CALM      30.14R                  
TOMAHAWK       FAIR      59  55  86 CALM      30.14R                  
MEDFORD        FAIR      64  54  72 W5        30.14R                  
MERRILL        FAIR      65  56  73 CALM      30.14R                  
$$
 
WIZ029-030-035-036-043>047-230300-
CENTRAL WISCONSIN
  
CITY           SKY/WX    TMP DP  RH WIND       PRES   REMARKS
WAUSAU         FAIR      67  55  65 W6        30.11R                  
MOSINEE        CLEAR     66  54  63 W5        30.14R                  
MARSHFIELD     FAIR      65  54  67 NW5       30.13R                  
STEVENS POINT  FAIR      67  53  62 W3        30.13R                  
WAUPACA        NOT AVBL                                               
WAUTOMA        FAIR      66  59  78 W6        30.11R                  
WISC RAPIDS    FAIR      67  56  67 W6        30.13R                  
CAMP DOUGLAS   PTCLDY    68  59  73 W5        30.12S                  
$$
 
WIZ011>013-019>022-031-037>040-048>050-230300-
NORTHEAST WISCONSIN
  
CITY           SKY/WX    TMP DP  RH WIND       PRES   REMARKS
ANTIGO         FAIR      62  55  77 NW5       30.14R                  
SHAWANO        FAIR      69  54  58 NW5       30.09R                  
OCONTO         FAIR      68  51  53 N3        30.08R                  
STURGEON BAY   FAIR      68  56  65 NE7       30.08R                  
GREEN BAY      FAIR      70  59  68 NW6       30.07R                  
MANITOWOC      MOCLDY    70  55  59 W5        30.06S                  
APPLETON       PTCLDY    66  48  52 W6        30.07S                  
CLINTONVILLE   FAIR      69  51  52 NW6       30.10R                  
OSHKOSH        FAIR      69  56  62 W3        30.08S                  
$$
 
WIZ032>034-041-042-053>061-230300-
SOUTHWEST WISCONSIN
  
CITY           SKY/WX    TMP DP  RH WIND       PRES   REMARKS
LA CROSSE      FAIR      71  56  58 NW7       30.14S                  
SPARTA         FAIR      63  57  83 CALM      30.15S                  
VIROQUA        FAIR      65  57  75 W3        30.17R                  
BOSCOBEL       FAIR      65  58  78 CALM      30.14S                  
PRAIRIE DU CHI FAIR      67  55  64 CALM      30.15R                  
PLATTEVILLE    FAIR      67  56  68 NW5       30.16R                  
$$

WIZ056-057-062-063-064-067-068-230300-
SOUTH CENTRAL WISCONSIN
  
CITY           SKY/WX    TMP DP  RH WIND       PRES   REMARKS
REEDSBURG      FAIR      66  56  69 W6        30.13R                  
BARABOO/DELLS  FAIR      64  56  75 W3        30.13R                  
LONE ROCK      FAIR      65  58  78 W3        30.13R                  
MINERAL POINT  FAIR      66  54  63 CALM      30.15S                  
MADISON        FAIR      65  57  75 W3        30.11S                  
MIDDLETON      FAIR      64  58  81 CALM      30.13S                  
WATERTOWN      NOT AVBL                                               
MONROE         FAIR      66  51  57 NW7       30.13S                  
JANESVILLE     FAIR      64  54  68 NW3       30.12R                  
$$
 
WIZ051-052-058>065-066-070>072-230300-
SOUTHEAST WISCONSIN
  
CITY           SKY/WX    TMP DP  RH WIND       PRES   REMARKS
MILWAUKEE      FAIR      67  47  48 CALM      30.08F                  
WAUKESHA       CLEAR     63  50  63 CALM      30.11S                  
MILWAUKEE/TIMM FAIR      64  50  59 CALM      30.10S                  
RACINE         FAIR      62  52  69 CALM      30.10F                  
KENOSHA        FAIR      62  53  72 CALM      30.10S                  
FOND DU LAC    FAIR      69  55  60 SW7       30.08F                  
SHEBOYGAN      FAIR      65  57  75 SW5       30.07S                  
WEST BEND      FAIR      63  54  72 CALM      30.09S                  
JUNEAU         FAIR      63  59  87 CALM      30.11S                  
$$

LSZ147-162-230300-
LAKE SUPERIOR
  
STATION/POSITION TIME  TEMP    WIND        PRES    WAVE
                       AIR SEA DIR/SP/G            HT/PER
                 (UTC) (F)     (DEG/KT/KT) (MB)    (FT/S)
W MID LAKE BUOY  0150   58 49  250/  8/  8 1017.6F   1/ 3
$$
 
LMZ867-665-643>646-230300-
LAKE MICHIGAN
  
STATION/POSITION TIME  TEMP    WIND        PRES    WAVE
                       AIR SEA DIR/SP/G            HT/PER
                 (UTC) (F)     (DEG/KT/KT) (MB)    (FT/S)
CHAMBERS ISLAND  0140   72      30/  9/ 14 1017.9R
S GREEN BAY BUOY 0200   77 73   30/ 14/ 16 1018.3
N MID LAKE BUOY  0200   67 65  360/  6/  8 1018.1
NORTHPORT PIER   0140   71     350/  3/  5 1017.6S
KEWAUNEE LAKESHO 0136   71     330/  2/  6 1017.0R
SHEBOYGAN LAKESH 0200   69     230/  5/  5 1017.7F
ATWATER BUOY     0200   66 67  260/  4/  4 1019.0    2/ 5
MILWAUKEE LAKESH 0150   67     170/  2/  2   N/A
S MID LAKE BUOY  0200   67 68  360/ 10/ 10 1018.6
KENOSHA   LAKESH 0200   68     300/  2/  2 1018.6
$$

TC  - TEMPERATURE IN CELSIUS
VSB - VISIBILITY IN STATUTE MILES
WCI - WIND CHILL INDEX
HX  - HEAT INDEX